| time (UTC) | temp C | wind direction | speed KPH | gust KPH | rain 1hr cm | rain 24hr cm | rain mn cm | humidity % | barometer mb |
| 20260510064053 | 10 | 8 | 11.3 | 22.5 | 0.00 | 0.00 | 0.00 | 87 | 1015.7 |
| 20260510063056 | 10 | 7 | 9.7 | 17.7 | 0.00 | 0.00 | 0.00 | 88 | 1015.8 |
| 20260510062056 | 10 | 8 | 11.3 | 20.9 | 0.00 | 0.00 | 0.00 | 88 | 1015.8 |
| 20260510061056 | 10 | 18 | 9.7 | 20.9 | 0.00 | 0.00 | 0.00 | 88 | 1015.8 |
| 20260510060056 | 10 | 19 | 8.0 | 16.1 | 0.00 | 0.00 | 0.00 | 87 | 1015.8 |
| 20260510055054 | 10 | 14 | 9.7 | 19.3 | 0.00 | 0.00 | 0.00 | 88 | 1015.7 |
| 20260510054055 | 10 | 9 | 9.7 | 17.7 | 0.00 | 0.00 | 0.00 | 88 | 1015.7 |
| 20260510053057 | 9 | 13 | 9.7 | 16.1 | 0.00 | 0.00 | 0.00 | 89 | 1015.7 |
| 20260510052052 | 9 | 20 | 9.7 | 17.7 | 0.00 | 0.00 | 0.00 | 88 | 1015.8 |
| 20260510050052 | 9 | 351 | 8.0 | 14.5 | 0.00 | 0.00 | 0.00 | 89 | 1015.8 |
| 20260510045057 | 8 | 7 | 8.0 | 14.5 | 0.00 | 0.00 | 0.00 | 90 | 1015.9 |
| 20260510043053 | 8 | 11 | 6.4 | 9.7 | 0.00 | 0.00 | 0.00 | 89 | 1015.8 |
| 20260510042054 | 8 | 14 | 6.4 | 14.5 | 0.00 | 0.00 | 0.00 | 89 | 1015.8 |
| 20260510041054 | 8 | 7 | 9.7 | 16.1 | 0.00 | 0.00 | 0.00 | 89 | 1015.8 |
| 20260510040056 | 8 | 8 | 11.3 | 19.3 | 0.00 | 0.00 | 0.00 | 89 | 1015.8 |
| 20260510035056 | 8 | 5 | 8.0 | 14.5 | 0.00 | 0.00 | 0.00 | 89 | 1015.7 |
| 20260510034055 | 8 | 3 | 8.0 | 12.9 | 0.00 | 0.00 | 0.00 | 89 | 1015.7 |
| 20260510033056 | 8 | 5 | 6.4 | 11.3 | 0.00 | 0.00 | 0.00 | 88 | 1015.7 |
| 20260510032055 | 8 | 3 | 4.8 | 9.7 | 0.00 | 0.00 | 0.00 | 88 | 1015.8 |
| 20260510031055 | 8 | 355 | 4.8 | 8.0 | 0.00 | 0.00 | 0.00 | 88 | 1016.0 |
| 20260510030053 | 8 | 12 | 4.8 | 11.3 | 0.00 | 0.00 | 0.00 | 87 | 1016.2 |
| 20260510025052 | 8 | 9 | 6.4 | 12.9 | 0.00 | 0.00 | 0.00 | 87 | 1016.1 |
| 20260510023055 | 9 | 359 | 6.4 | 11.3 | 0.00 | 0.00 | 0.00 | 86 | 1016.1 |
| 20260510021055 | 9 | 357 | 6.4 | 11.3 | 0.00 | 0.00 | 0.00 | 86 | 1016.1 |
| 20260510020054 | 9 | 355 | 4.8 | 9.7 | 0.00 | 0.00 | 0.00 | 86 | 1016.1 |
| 20260510015053 | 9 | 356 | 4.8 | 9.7 | 0.00 | 0.00 | 0.00 | 85 | 1016.1 |
| 20260510014054 | 9 | 358 | 4.8 | 8.0 | 0.00 | 0.00 | 0.00 | 84 | 1016.2 |
| 20260510013056 | 10 | 358 | 4.8 | 9.7 | 0.00 | 0.00 | 0.00 | 83 | 1016.3 |
| 20260510012053 | 10 | 6 | 6.4 | 9.7 | 0.00 | 0.00 | 0.00 | 83 | 1016.5 |
| 20260510011052 | 10 | 2 | 4.8 | 9.7 | 0.00 | 0.00 | 0.00 | 82 | 1016.5 |
| 20260510010055 | 10 | 2 | 6.4 | 11.3 | 0.00 | 0.00 | 0.00 | 82 | 1016.5 |
| 20260510005053 | 10 | 6 | 8.0 | 11.3 | 0.00 | 0.00 | 0.00 | 81 | 1016.6 |
| 20260510004055 | 10 | 7 | 6.4 | 11.3 | 0.00 | 0.00 | 0.00 | 81 | 1016.8 |
| 20260510003056 | 10 | 8 | 8.0 | 11.3 | 0.00 | 0.00 | 0.00 | 81 | 1016.8 |
| 20260510002056 | 10 | 12 | 6.4 | 9.7 | 0.00 | 0.00 | 0.00 | 80 | 1016.8 |
| 20260510000055 | 11 | 9 | 8.0 | 12.9 | 0.00 | 0.00 | 0.00 | 79 | 1016.9 |
| 20260509235108 | 11 | 6 | 8.0 | 12.9 | 0.00 | 0.00 | 0.00 | 79 | 1016.9 |
| 20260509233103 | 11 | 1 | 4.8 | 9.7 | 0.00 | 0.00 | 0.00 | 79 | 1016.9 |
| 20260509232106 | 11 | 6 | 6.4 | 9.7 | 0.00 | 0.00 | 0.00 | 78 | 1017.0 |
| 20260509231101 | 11 | 6 | 6.4 | 9.7 | 0.00 | 0.00 | 0.00 | 77 | 1017.1 |
| 20260509230105 | 11 | 1 | 4.8 | 8.0 | 0.00 | 0.00 | 0.00 | 76 | 1017.1 |
| 20260509225107 | 11 | 5 | 6.4 | 11.3 | 0.00 | 0.00 | 0.00 | 76 | 1017.1 |
| 20260509224105 | 11 | 11 | 6.4 | 9.7 | 0.00 | 0.00 | 0.00 | 75 | 1017.1 |
| 20260509223101 | 12 | 17 | 6.4 | 9.7 | 0.00 | 0.00 | 0.00 | 74 | 1017.1 |
| 20260509222105 | 12 | 20 | 8.0 | 16.1 | 0.00 | 0.00 | 0.00 | 72 | 1017.1 |
| 20260509221105 | 12 | 23 | 6.4 | 9.7 | 0.00 | 0.00 | 0.00 | 72 | 1017.1 |
| 20260509220104 | 12 | 21 | 6.4 | 8.0 | 0.00 | 0.00 | 0.00 | 71 | 1017.1 |
| 20260509215113 | 12 | 22 | 6.4 | 9.7 | 0.00 | 0.00 | 0.00 | 71 | 1017.1 |
| 20260509214110 | 12 | 11 | 6.4 | 11.3 | 0.00 | 0.00 | 0.00 | 71 | 1017.1 |
| 20260509213110 | 12 | 5 | 6.4 | 12.9 | 0.00 | 0.00 | 0.00 | 72 | 1017.1 |
| 20260509210106 | 13 | 20 | 6.4 | 11.3 | 0.00 | 0.00 | 0.00 | 68 | 1017.1 |
| 20260509205111 | 13 | 24 | 6.4 | 12.9 | 0.00 | 0.00 | 0.00 | 68 | 1017.0 |
| 20260509204110 | 13 | 14 | 6.4 | 9.7 | 0.00 | 0.00 | 0.00 | 67 | 1017.0 |
| 20260509203111 | 13 | 20 | 6.4 | 11.3 | 0.00 | 0.00 | 0.00 | 68 | 1017.0 |
| 20260509200111 | 14 | 16 | 4.8 | 8.0 | 0.00 | 0.00 | 0.00 | 68 | 1016.9 |
| 20260509195113 | 14 | 19 | 4.8 | 9.7 | 0.00 | 0.00 | 0.00 | 67 | 1016.8 |
| 20260509194107 | 14 | 21 | 6.4 | 9.7 | 0.00 | 0.00 | 0.00 | 66 | 1016.9 |
| 20260509193108 | 15 | 21 | 6.4 | 11.3 | 0.00 | 0.00 | 0.00 | 66 | 1016.8 |
| 20260509192109 | 15 | 20 | 6.4 | 11.3 | 0.00 | 0.00 | 0.00 | 65 | 1016.8 |
| 20260509191107 | 15 | 15 | 6.4 | 12.9 | 0.00 | 0.00 | 0.00 | 63 | 1016.7 |
| 20260509190110 | 15 | 15 | 6.4 | 11.3 | 0.00 | 0.00 | 0.00 | 61 | 1016.5 |
| 20260509184108 | 16 | 11 | 8.0 | 14.5 | 0.00 | 0.00 | 0.00 | 58 | 1016.4 |
| 20260509183110 | 16 | 9 | 9.7 | 16.1 | 0.00 | 0.00 | 0.00 | 58 | 1016.4 |
| 20260509182106 | 17 | 5 | 8.0 | 17.7 | 0.00 | 0.00 | 0.00 | 57 | 1016.3 |
| 20260509181104 | 17 | 8 | 8.0 | 12.9 | 0.00 | 0.00 | 0.00 | 56 | 1016.3 |
| 20260509180105 | 18 | 11 | 6.4 | 11.3 | 0.00 | 0.00 | 0.00 | 55 | 1016.2 |
| 20260509175102 | 18 | 5 | 8.0 | 14.5 | 0.00 | 0.00 | 0.00 | 54 | 1016.3 |
| 20260509174107 | 18 | 12 | 6.4 | 11.3 | 0.00 | 0.00 | 0.00 | 53 | 1016.3 |
| 20260509173103 | 19 | 33 | 9.7 | 17.7 | 0.00 | 0.00 | 0.00 | 50 | 1016.2 |
| 20260509171103 | 20 | 17 | 8.0 | 16.1 | 0.00 | 0.00 | 0.00 | 50 | 1016.0 |
| 20260509170104 | 20 | 12 | 9.7 | 16.1 | 0.00 | 0.00 | 0.00 | 49 | 1016.0 |
| 20260509164103 | 20 | 22 | 11.3 | 17.7 | 0.00 | 0.00 | 0.00 | 50 | 1016.1 |
| 20260509163104 | 20 | 6 | 9.7 | 17.7 | 0.00 | 0.00 | 0.00 | 49 | 1016.0 |
| 20260509162103 | 20 | 18 | 8.0 | 14.5 | 0.00 | 0.00 | 0.00 | 50 | 1016.0 |
| 20260509161103 | 20 | 36 | 8.0 | 14.5 | 0.00 | 0.00 | 0.00 | 51 | 1016.0 |
| 20260509160058 | 20 | 32 | 8.0 | 19.3 | 0.00 | 0.00 | 0.00 | 49 | 1016.0 |
| 20260509155100 | 20 | 16 | 8.0 | 20.9 | 0.00 | 0.00 | 0.00 | 48 | 1016.1 |
| 20260509154100 | 20 | 40 | 8.0 | 17.7 | 0.00 | 0.00 | 0.00 | 49 | 1016.1 |
| 20260509153101 | 21 | 32 | 8.0 | 19.3 | 0.00 | 0.00 | 0.00 | 50 | 1016.1 |
| 20260509151059 | 21 | 10 | 8.0 | 16.1 | 0.00 | 0.00 | 0.00 | 50 | 1016.3 |
| 20260509145058 | 21 | 26 | 9.7 | 19.3 | 0.00 | 0.00 | 0.00 | 51 | 1016.4 |
| 20260509143058 | 21 | 11 | 11.3 | 19.3 | 0.00 | 0.00 | 0.00 | 53 | 1016.6 |
| 20260509142056 | 20 | 24 | 8.0 | 17.7 | 0.00 | 0.00 | 0.00 | 51 | 1016.7 |
| 20260509141058 | 21 | 4 | 9.7 | 19.3 | 0.00 | 0.00 | 0.00 | 51 | 1016.7 |
| 20260509135056 | 20 | 29 | 8.0 | 17.7 | 0.00 | 0.00 | 0.00 | 51 | 1016.8 |
| 20260509134057 | 21 | 24 | 9.7 | 19.3 | 0.00 | 0.00 | 0.00 | 53 | 1017.0 |
| 20260509133059 | 21 | 20 | 11.3 | 20.9 | 0.00 | 0.00 | 0.00 | 52 | 1017.0 |
| 20260509131058 | 21 | 29 | 11.3 | 24.1 | 0.00 | 0.00 | 0.00 | 54 | 1017.2 |
| 20260509130056 | 21 | 19 | 9.7 | 19.3 | 0.00 | 0.00 | 0.00 | 54 | 1017.2 |
| 20260509125058 | 20 | 31 | 9.7 | 24.1 | 0.00 | 0.00 | 0.00 | 55 | 1017.4 |
| 20260509124056 | 20 | 21 | 8.0 | 17.7 | 0.00 | 0.00 | 0.00 | 53 | 1017.5 |
| 20260509123057 | 20 | 354 | 9.7 | 19.3 | 0.00 | 0.00 | 0.00 | 56 | 1017.5 |
| 20260509122053 | 20 | 31 | 9.7 | 17.7 | 0.00 | 0.00 | 0.00 | 55 | 1017.6 |
| 20260509121057 | 20 | 23 | 9.7 | 19.3 | 0.00 | 0.00 | 0.00 | 56 | 1017.7 |
| 20260509120058 | 20 | 136 | 8.0 | 19.3 | 0.00 | 0.00 | 0.00 | 58 | 1017.9 |
| 20260509114056 | 20 | 25 | 11.3 | 20.9 | 0.00 | 0.00 | 0.00 | 55 | 1018.1 |
| 20260509112054 | 20 | 47 | 9.7 | 19.3 | 0.00 | 0.00 | 0.00 | 56 | 1018.2 |
| 20260509110056 | 20 | 104 | 8.0 | 22.5 | 0.00 | 0.00 | 0.00 | 57 | 1018.4 |
| 20260509105055 | 20 | 135 | 8.0 | 16.1 | 0.00 | 0.00 | 0.00 | 57 | 1018.5 |
| 20260509103056 | 19 | 179 | 6.4 | 17.7 | 0.00 | 0.00 | 0.00 | 56 | 1018.6 |
| 20260509102058 | 19 | 34 | 11.3 | 20.9 | 0.00 | 0.00 | 0.00 | 58 | 1018.7 |
| 20260509100056 | 18 | 39 | 9.7 | 17.7 | 0.00 | 0.00 | 0.00 | 59 | 1018.7 |
| 20260509095058 | 18 | 36 | 9.7 | 20.9 | 0.00 | 0.00 | 0.00 | 58 | 1018.8 |
| 20260509094056 | 18 | 34 | 6.4 | 20.9 | 0.00 | 0.00 | 0.00 | 59 | 1018.8 |
| 20260509092055 | 18 | 26 | 8.0 | 14.5 | 0.00 | 0.00 | 0.00 | 63 | 1018.9 |
| 20260509091058 | 17 | 25 | 8.0 | 11.3 | 0.00 | 0.00 | 0.00 | 65 | 1019.0 |
| 20260509090056 | 17 | 35 | 6.4 | 12.9 | 0.00 | 0.00 | 0.00 | 66 | 1019.0 |
| 20260509085054 | 16 | 32 | 6.4 | 11.3 | 0.00 | 0.00 | 0.00 | 66 | 1019.0 |
| 20260509084056 | 16 | 28 | 6.4 | 12.9 | 0.00 | 0.00 | 0.00 | 68 | 1019.1 |
| 20260509083056 | 16 | 11 | 6.4 | 11.3 | 0.00 | 0.00 | 0.00 | 70 | 1019.2 |
| 20260509082059 | 16 | 23 | 6.4 | 11.3 | 0.00 | 0.00 | 0.00 | 71 | 1019.2 |
| 20260509081059 | 15 | 19 | 6.4 | 11.3 | 0.00 | 0.00 | 0.00 | 70 | 1019.3 |
| 20260509080056 | 15 | 13 | 6.4 | 11.3 | 0.00 | 0.00 | 0.00 | 73 | 1019.4 |
| 20260509075055 | 15 | 29 | 4.8 | 9.7 | 0.00 | 0.00 | 0.00 | 73 | 1019.3 |
| 20260509074057 | 15 | 32 | 3.2 | 8.0 | 0.00 | 0.00 | 0.00 | 74 | 1019.3 |
| 20260509073058 | 14 | 319 | 3.2 | 8.0 | 0.00 | 0.00 | 0.00 | 71 | 1019.5 |
| 20260509072058 | 14 | 261 | 3.2 | 6.4 | 0.00 | 0.00 | 0.00 | 72 | 1019.6 |
| 20260509071055 | 13 | 30 | 4.8 | 8.0 | 0.00 | 0.00 | 0.00 | 72 | 1019.6 |
| 20260509070051 | 13 | 28 | 4.8 | 8.0 | 0.00 | 0.00 | 0.00 | 76 | 1019.6 |
| 20260509065055 | 12 | 55 | 3.2 | 9.7 | 0.00 | 0.00 | 0.00 | 77 | 1019.6 |